This demonstration page uses our WeatherBlox Daily Observations layout. Learn more.

Left ArrowRight Arrow

Hourly Observations for February 1, 2022

Temp ( °F °C ) Dew Point ( °F °C ) Humidity (%) Winds ( mph kmh ) Pressure ( in mb ) Visibility ( mi km ) Precip ( " mm )
12:56 am 00:56 Clear 39 4 18 -7.8 42 42 NW 5 7 29.79 1009 10 16 0.00 0.00
1:56 am 01:56 Clear 38 3.4 21 -6 51 51 NNW 8 13 29.80 1009 10 16 0.00 0.00
2:56 am 02:56 Clear 36 2.2 22 -5.7 56 56 NW 9 15 29.83 1010 10 16 0.00 0.00
3:56 am 03:56 Clear 36 2.3 25 -4 63 63 NW 9 15 29.85 1011 10 16 0.00 0.00
4:56 am 04:56 Clear 36 2 25 -3.9 65 65 NW 8 13 29.88 1012 10 16 0.00 0.00
5:56 am 05:56 Clear 35 1.8 24 -4.3 64 64 NW 12 19 29.90 1013 10 16 0.00 0.00
6:56 am 06:56 Clear 38 3.3 23 -4.9 55 55 NW 15 24 29.95 1014 10 16 0.00 0.00
7:56 am 07:56 Mostly Cloudy 36 2 17 -8.4 46 46 NW 23 37 29.98 1015 10 16 0.00 0.00
8:56 am 08:56 Mostly Cloudy 33 0.5 15 -9.5 47 47 NNW 21 33 30.04 1017 10 16 0.00 0.00
9:56 am 09:56 Mostly Sunny 32 0 13 -10.8 44 44 NNW 17 28 30.08 1019 10 16 0.00 0.00
10:56 am 10:56 Sunny 34 1.1 13 -10.7 41 41 NNW 17 28 30.09 1019 10 16 0.00 0.00
11:56 am 11:56 Sunny 36 2 14 -9.9 41 41 NW 13 20 30.12 1020 10 16 0.00 0.00
12:56 pm 12:56 Partly Cloudy 36 2 11 -11.5 36 36 NNW 13 20 30.12 1020 10 16 0.00 0.00
1:56 pm 13:56 undefined 34 1 10 -12.1 37 37 N 13 20 30.12 1020 10 16 0.00 0.00
2:56 pm 14:56 Mostly Cloudy 34 0.9 8 -13.2 34 34 N 14 22 30.14 1021 10 16 0.00 0.00
3:56 pm 15:56 Mostly Cloudy 30 -1 8 -13.5 38 38 N 15 24 30.16 1021 10 16 0.00 0.00
4:56 pm 16:56 Cloudy 28 -2.2 7 -14 40 40 N 14 22 30.20 1023 10 16 0.00 0.00
5:56 pm 17:56 Mostly Cloudy 26 -3.3 6 -14.4 42 42 N 10 17 30.22 1023 10 16 0.00 0.00
6:56 pm 18:56 undefined 25 -3.7 5 -15.1 41 41 N 12 19 30.26 1025 10 16 0.00 0.00
7:56 pm 19:56 Mostly Cloudy 25 -4 5 -15 42 42 N 12 19 30.28 1025 10 16 0.00 0.00
8:56 pm 20:56 Mostly Cloudy 25 -4.1 3 -16 39 39 N 13 20 30.32 1027 10 16 0.00 0.00
9:56 pm 21:56 Cloudy 24 -4.6 2 -16.8 38 38 N 13 20 30.33 1027 10 16 0.00 0.00
10:56 pm 22:56 Cloudy 23 -5.1 2 -16.9 39 39 N 15 24 30.35 1028 10 16 0.00 0.00
11:56 pm 23:56 Mostly Cloudy 22 -5.6 1 -17.1 40 40 N 12 19 30.37 1029 10 16 0.00 0.00

Powered by AerisWeather